[[{"header":{"parameterUnit":"m.s-1","parameterCategory":1,"la1":30.2991,"la2":30.254,"lo1":-89.0895,"lo2":-89.0444,"dy":0.0017,"dx":0.0017,"nx":28,"ny":28,"refTime":"2024-06-20T03:00:00:Z","depth":0,"parameterNumber":2,"parameterNumberName":"U-component_of_WINDS"},"data":[0,0,0,0,0,0,0,0,0,0,0,0,0,0,0,0,0,0,0,0,0,0,0,0,0,0,0,0,0,0,0,0,0,0,0,0,0,0,0,0,0,0,0,0,0,0,0,0,0,0,0,0,0,0,0,0,0,0,-4.5271,-4.5271,0,-4.5238,-4.5238,-4.5237,-4.5104,-4.5101,-4.5098,-4.5095,-4.5064,-4.5066,-4.5068,0,0,0,0,0,0,0,0,0,0,0,0,0,-4.5223,-4.5225,-4.5271,-4.5271,-4.527,-4.5238,-4.5238,-4.5237,-4.5105,-4.5101,-4.5097,-4.5094,-4.5063,-4.5065,-4.5068,0,0,0,0,0,0,0,0,0,0,0,0,0,-4.5223,-4.5225,-4.5271,-4.52,-4.5193,-4.5238,-4.5238,-4.5237,-4.5105,-4.5101,-4.5096,-4.5092,-4.5062,-4.5065,-4.5068,-4.518,0,0,-4.5078,-4.5079,0,0,0,0,0,0,0,0,-4.5223,-4.5224,-4.5211,-4.5205,-4.5198,-4.517,-4.5209,-4.5218,-4.5107,-4.5139,-4.5095,-4.509,-4.5103,-4.5103,-4.5107,-4.5178,-4.5177,-4.5078,-4.508,-4.5081,-4.5082,0,0,0,0,0,0,0,-4.5223,-4.5225,-4.5258,-4.5211,-4.5203,-4.5171,-4.5166,-4.521,-4.5147,-4.5136,-4.5126,-4.5124,-4.5099,-4.5104,-4.5105,-4.5176,-4.5078,-4.508,-4.5082,-4.5084,-4.534,-4.5345,0,0,0,0,0,0,-4.5233,-4.5226,-4.5259,-4.5257,-4.5199,-4.5176,-4.517,-4.5184,-4.5147,-4.5136,-4.5128,-4.5118,-4.5101,-4.5101,-4.5103,-4.5232,-4.5081,-4.5084,-4.5086,-4.5335,-4.5341,-4.5346,0,0,0,0,0,0,-4.5232,-4.5237,-4.526,-4.5239,-4.524,-4.5182,-4.5198,-4.5186,-4.5191,-4.514,-4.5129,-4.5144,-4.5097,-4.5099,-4.5162,-4.5229,-4.5085,-4.5088,-4.5329,-4.5337,-4.5344,-4.549,0,0,0,0,0,0,-4.5231,-4.5237,-4.5278,-4.5241,-4.5241,-4.5319,-4.5202,-4.5188,-4.5196,-4.5183,-4.5153,-4.5144,-4.5094,-4.5158,-4.5165,-4.5231,-4.509,-4.5323,-4.5333,-4.5341,-4.5479,-4.5502,-4.5521,0,0,0,0,0,-4.523,-4.5321,-4.5281,-4.5286,-4.5291,-4.5323,-4.5323,-4.5263,-4.5202,-4.5243,-4.5211,-4.5145,-4.5221,-4.5166,-4.5172,-4.524,-4.5318,-4.533,-4.5341,-4.547,-4.5497,-4.5521,0,0,0,0,0,0,-4.5368,-4.5314,-4.5269,-4.5351,-4.5343,-4.53,-4.535,-4.5294,-4.5303,-4.529,-4.5216,-4.5211,-4.5285,-4.5269,-4.5208,-4.5347,-4.5259,-4.5272,-4.5354,-4.538,-4.5401,-4.5403,-4.5093,0,0,0,0,0,-4.5407,-4.5437,-4.5389,-4.5466,-4.5464,-4.5409,-4.542,-4.5375,-4.5363,-4.5359,-4.5332,-4.5324,-4.5346,-4.5363,-4.538,-4.5477,-4.5469,-4.5527,-4.5548,-4.5565,-4.5577,-4.5628,-4.5654,-4.5383,-4.5383,-4.5383,0,0,-4.549,-4.5465,-4.5488,-4.5493,-4.5481,-4.5515,-4.5406,-4.5446,-4.547,-4.5365,-4.5423,-4.5404,-4.539,-4.5471,-4.5505,-4.546,-4.5651,-4.558,-4.5594,-4.5596,-4.5643,-4.5668,-4.5691,-4.5391,-4.5389,-4.5388,0,0,-4.5657,-4.5641,-4.5703,-4.5694,-4.5677,-4.564,-4.5655,-4.5622,-4.5605,-4.5662,-4.5584,-4.5613,-4.5653,-4.5647,-4.5649,-4.5818,-4.5757,-4.5826,-4.5935,-4.5986,-4.6007,-4.6026,-4.6087,-4.6109,-4.5838,-4.5838,-4.5839,0,-4.5761,-4.5808,-4.5742,-4.5787,-4.5793,-4.57,-4.5763,-4.5758,-4.5748,-4.5755,-4.5704,-4.5753,-4.5737,-4.5816,-4.5857,-4.5862,-4.5878,-4.5828,-4.6009,-4.6027,-4.6044,-4.6101,-4.6124,-4.5847,-4.5846,-4.5845,-4.5844,0,-4.5938,-4.5971,-4.6024,-4.6017,-4.6028,-4.6083,-4.6027,-4.6047,-4.6002,-4.5971,-4.6031,-4.6009,-4.6022,-4.6037,-4.5993,-4.6111,-4.6083,-4.6022,-4.5932,-4.6079,-4.6131,-4.6153,-4.5859,-4.5856,-4.5853,-4.5851,0,0,-4.6188,-4.6146,-4.6166,-4.6163,-4.6139,-4.6164,-4.6216,-4.6228,-4.6246,-4.6244,-4.6286,-4.6323,-4.6267,-4.627,-4.6225,-4.627,-4.6406,-4.6204,-4.6202,-4.6242,-4.6535,-4.6581,-4.6607,-4.6367,-4.637,-4.6373,-4.6536,0,-4.6347,-4.6431,-4.6375,-4.6468,-4.6499,-4.6413,-4.6458,-4.6449,-4.6423,-4.6446,-4.6417,-4.6444,-4.6368,-4.637,-4.641,-4.6381,-4.6464,-4.6368,-4.6405,-4.6408,-4.6411,-4.6634,-4.6681,-4.6836,-4.6556,-4.656,-4.6562,0,-4.6543,-4.655,-4.6647,-4.6618,-4.6629,-4.6671,-4.6678,-4.6701,-4.6691,-4.6668,-4.6673,-4.6617,-4.6667,-4.658,-4.6648,-4.6585,-4.6597,-4.6586,-4.659,-4.659,-4.6493,-4.664,-4.6884,-4.6907,-4.6594,-4.6591,-4.6589,0,-4.6717,-4.675,-4.6812,-4.6812,-4.678,-4.6812,-4.68,-4.6785,-4.6797,-4.6804,-4.681,-4.6824,-4.6831,-4.6844,-4.6794,-4.6734,-4.687,-4.6777,-4.6853,-4.6855,-4.6884,-4.6883,-4.7133,-4.6894,-4.6893,-4.6893,-4.6892,0,-4.69,-4.6962,-4.6889,-4.6928,-4.6996,-4.6932,-4.7002,-4.6982,-4.697,-4.7004,-4.6931,-4.6965,-4.6897,-4.6924,-4.6886,-4.6949,-4.6953,-4.6937,-4.6926,-4.6943,-4.6946,-4.695,-4.6937,-4.6899,-4.6898,-4.6896,-4.6895,0,-4.7104,-4.7058,-4.712,-4.7086,-4.7079,-4.7131,-4.7102,-4.7137,-4.7107,-4.7151,-4.7158,-4.711,-4.7138,-4.709,-4.7113,-4.7088,-4.7176,-4.7148,-4.7179,-4.7171,-4.7249,-4.7243,-4.751,-4.7542,-4.7283,-4.7286,-4.7288,0,-4.7223,-4.727,-4.7241,-4.7258,-4.7251,-4.728,-4.7291,-4.7232,-4.7247,-4.724,-4.7276,-4.7299,-4.7313,-4.7364,-4.7332,-4.735,-4.7322,-4.7415,-4.7324,-4.7341,-4.7323,-4.7321,-4.7326,-4.7433,-4.7436,-4.7439,-4.7441,0,-4.7441,-4.7416,-4.7435,-4.7447,-4.7463,-4.7469,-4.747,-4.7489,-4.7426,-4.7447,-4.7476,-4.7487,-4.7511,-4.7535,-4.7546,-4.7535,-4.7479,-4.747,-4.7488,-4.7506,-4.7522,-4.7514,-4.7229,-4.7463,-4.7461,-4.746,-4.7458,-4.7457,-4.7606,-4.7643,-4.763,-4.7654,-4.7649,-4.7652,-4.7684,-4.7658,-4.768,-4.7694,-4.7658,-4.7696,-4.7686,-4.7694,-4.769,-4.772,-4.7679,-4.7706,-4.7712,-4.772,-4.7732,-4.7518,-4.7722,-4.7721,-4.772,-4.772,-4.7719,0,-4.7819,-4.7807,-4.783,-4.7834,-4.7854,-4.7799,-4.7798,-4.7818,-4.7852,-4.7848,-4.7864,-4.7898,-4.7922,-4.7893,-4.7911,-4.794,-4.7915,-4.7947,-4.7944,-4.7943,-4.7767,-4.7749,-4.7968,-4.7968,-4.7968,-4.7968,-4.7967,-4.7967,-4.7932,-4.7993,-4.7968,-4.8027,-4.8013,-4.8049,-4.8054,-4.8058,-4.8054,-4.8095,-4.8114,-4.8095,-4.8081,-4.8098,-4.8118,-4.8109,-4.8119,-4.8161,-4.8143,-4.7979,-4.7955,-4.7932,-4.7914,-4.8164,-4.8164,-4.8316,-4.8317,-4.8318]},{"header":{"parameterUnit":"m.s-1","parameterCategory":1,"la1":30.2991,"la2":30.254,"lo1":-89.0895,"lo2":-89.0444,"dy":0.0017,"dx":0.0017,"nx":28,"ny":28,"refTime":"2024-06-20T03:00:00:Z","depth":0,"parameterNumber":3,"parameterNumberName":"V-component_of_WINDS"},"data":[0,0,0,0,0,0,0,0,0,0,0,0,0,0,0,0,0,0,0,0,0,0,0,0,0,0,0,0,0,0,0,0,0,0,0,0,0,0,0,0,0,0,0,0,0,0,0,0,0,0,0,0,0,0,0,0,0,0,2.5072,2.5071,0,2.5014,2.5013,2.5013,2.5023,2.5024,2.5025,2.5026,2.4954,2.4952,2.4949,0,0,0,0,0,0,0,0,0,0,0,0,0,2.5181,2.5179,2.5072,2.5071,2.5071,2.5014,2.5013,2.5013,2.5023,2.5024,2.5025,2.5027,2.4955,2.4952,2.4948,0,0,0,0,0,0,0,0,0,0,0,0,0,2.5129,2.5179,2.5072,2.5069,2.5069,2.5014,2.5013,2.5012,2.5023,2.5024,2.5026,2.5027,2.4957,2.4952,2.4948,2.4889,0,0,2.4935,2.4933,0,0,0,0,0,0,0,0,2.5132,2.5125,2.507,2.5069,2.5068,2.5028,2.5026,2.4971,2.5022,2.504,2.5026,2.5028,2.4977,2.4971,2.4956,2.4886,2.4883,2.4934,2.4932,2.493,2.4929,0,0,0,0,0,0,0,2.5136,2.5128,2.5049,2.507,2.5068,2.5067,2.5062,2.5015,2.4999,2.5038,2.5039,2.5033,2.4976,2.496,2.4954,2.4882,2.4934,2.4931,2.4928,2.4926,2.476,2.4758,0,0,0,0,0,0,2.5142,2.5131,2.5051,2.5047,2.5105,2.5064,2.5058,2.5039,2.5,2.4996,2.5031,2.5033,2.4967,2.4959,2.4952,2.488,2.493,2.4926,2.4923,2.4761,2.4759,2.4757,0,0,0,0,0,0,2.5144,2.5135,2.5053,2.5089,2.5079,2.5061,2.5039,2.5037,2.5021,2.4995,2.4991,2.5018,2.4968,2.4958,2.4906,2.4877,2.4924,2.492,2.4764,2.4761,2.4758,2.4735,0,0,0,0,0,0,2.5148,2.5136,2.5115,2.5089,2.5077,2.501,2.5038,2.5035,2.5015,2.5017,2.4982,2.4977,2.4968,2.4912,2.4901,2.4872,2.4917,2.4766,2.4762,2.4759,2.4738,2.4732,2.4727,0,0,0,0,0,2.5151,2.5109,2.5114,2.5105,2.5052,2.5009,2.5002,2.4996,2.5013,2.499,2.4974,2.4978,2.4883,2.4907,2.4894,2.4864,2.4768,2.4763,2.4759,2.4741,2.4733,2.4727,0,0,0,0,0,0,2.5128,2.5105,2.5111,2.5059,2.5037,2.5011,2.4983,2.4988,2.4956,2.4959,2.4949,2.4941,2.4888,2.4871,2.4897,2.4804,2.4827,2.482,2.4817,2.481,2.4804,2.4807,2.4913,0,0,0,0,0,2.5118,2.5088,2.5069,2.5024,2.5013,2.5,2.4981,2.4979,2.4953,2.4942,2.4922,2.4894,2.4857,2.4833,2.4798,2.4737,2.4728,2.471,2.4704,2.47,2.4692,2.4657,2.4648,2.4744,2.4744,2.4744,0,0,2.5093,2.5078,2.5059,2.5019,2.5001,2.4968,2.4992,2.4955,2.4929,2.4935,2.4885,2.487,2.4837,2.478,2.4754,2.4764,2.4665,2.4694,2.4691,2.4686,2.4652,2.4643,2.4635,2.4741,2.4742,2.4742,0,0,2.5033,2.502,2.4981,2.4964,2.4938,2.493,2.4921,2.4896,2.4887,2.4838,2.4842,2.4809,2.4747,2.4724,2.4703,2.4637,2.4639,2.4626,2.4593,2.4559,2.4552,2.4545,2.4519,2.451,2.462,2.462,2.462,0,2.5005,2.4959,2.4959,2.4923,2.4904,2.4915,2.4874,2.4856,2.4818,2.4803,2.4817,2.474,2.4719,2.4656,2.464,2.4624,2.4611,2.4628,2.4554,2.4547,2.454,2.4515,2.4505,2.4618,2.4618,2.4618,2.4619,0,2.4925,2.4893,2.4864,2.4832,2.4811,2.4772,2.4764,2.4742,2.4742,2.4732,2.468,2.4656,2.4617,2.4602,2.46,2.4538,2.4546,2.4557,2.4579,2.453,2.4505,2.4496,2.4616,2.4616,2.4617,2.4617,0,0,2.4844,2.4816,2.4805,2.4791,2.4765,2.4738,2.4699,2.4665,2.4644,2.4619,2.4583,2.4532,2.4543,2.4521,2.4517,2.4487,2.4433,2.4502,2.4501,2.4487,2.4361,2.435,2.4339,2.4437,2.4435,2.4433,2.4363,0,2.4779,2.4714,2.4715,2.4654,2.4622,2.4633,2.4598,2.4577,2.4567,2.4536,2.4523,2.4486,2.4505,2.4491,2.4463,2.4446,2.4407,2.4452,2.4399,2.4397,2.4404,2.4327,2.4315,2.425,2.4353,2.4352,2.4351,0,2.4693,2.4669,2.4606,2.4586,2.4572,2.4542,2.4511,2.4483,2.4457,2.4452,2.4429,2.443,2.4386,2.4414,2.4352,2.4382,2.4361,2.435,2.4347,2.4339,2.4368,2.4313,2.4229,2.4217,2.4336,2.4337,2.4339,0,2.4637,2.4589,2.4545,2.4533,2.4508,2.4486,2.4474,2.4452,2.4431,2.4403,2.4388,2.4354,2.4334,2.4306,2.4296,2.4317,2.4234,2.4261,2.4225,2.4225,2.4203,2.4204,2.4111,2.4196,2.4196,2.4196,2.4196,0,2.4562,2.4522,2.452,2.4492,2.4447,2.4448,2.4402,2.4391,2.4371,2.4339,2.4346,2.4315,2.4306,2.4272,2.4264,2.4213,2.4205,2.4196,2.4194,2.4194,2.4194,2.4177,2.4179,2.4194,2.4194,2.4195,2.4195,0,2.449,2.4487,2.444,2.4422,2.4417,2.4384,2.4367,2.4339,2.4332,2.4291,2.4281,2.4267,2.4228,2.4218,2.4169,2.4164,2.4103,2.4107,2.4113,2.4111,2.4075,2.4077,2.3964,2.3948,2.4047,2.4046,2.4045,0,2.444,2.4411,2.4391,2.4373,2.4361,2.433,2.431,2.431,2.4288,2.4259,2.4233,2.4197,2.4166,2.4103,2.4086,2.4049,2.4049,2.4013,2.4043,2.4044,2.4045,2.4045,2.4041,2.4005,2.4004,2.4003,2.4002,0,2.4352,2.4353,2.4327,2.43,2.4277,2.4255,2.4233,2.4217,2.4213,2.4188,2.4151,2.4128,2.4082,2.4043,2.4006,2.399,2.3993,2.3994,2.3983,2.398,2.3984,2.3978,2.4093,2.3995,2.3996,2.3996,2.3997,2.3997,2.4287,2.4261,2.4244,2.4214,2.4199,2.418,2.4153,2.4144,2.4114,2.4079,2.408,2.4038,2.4014,2.3966,2.3948,2.3913,2.3923,2.3908,2.3903,2.3898,2.3894,2.3994,2.3906,2.3906,2.3906,2.3907,2.3907,0,2.4197,2.4187,2.416,2.4132,2.4108,2.4121,2.4098,2.4076,2.4041,2.402,2.3992,2.3948,2.3911,2.3894,2.3857,2.3832,2.3832,2.3821,2.3821,2.3817,2.3888,2.39,2.3822,2.3822,2.3822,2.3822,2.3822,2.3822,2.4146,2.4103,2.4102,2.405,2.404,2.4003,2.3988,2.3969,2.3953,2.3905,2.3877,2.3867,2.3846,2.3808,2.3774,2.377,2.3754,2.3741,2.3737,2.3803,2.3812,2.382,2.3831,2.3739,2.3739,2.3668,2.3667,2.3667]}]]